www.pogodaiklimat.ru

Погода и климат >> Архив погоды >> Албания >> Shkodra


ПОГОДА в Shkodra

  • Прогноз погоды в Shkodra
  • Монитор погоды в Shkodra
  • Климат города

АРХИВ ПОГОДЫ в Shkodra

Время (UTC), дата Ветер
(напр.,м/с)
 
Видим.   Явления Облачность Т
(С)
Тd
(С)
f
(%)
Тe
(С)
Тes
(С)
Комфортность P
(гПа)
Po
(гПа)
Тmin
(С)
Tmax
(С)
R
(мм)
R24
(мм)
S
(см)
09 18.06 З 4 20 км 4/3 600 м
[Cu hum Ci fib]
+26.8 +19.4 64 +32 +40 очень
душно
1011.3 1006.4
12 18.06 СВ 6 10 км 4/3 600 м
[Cu hum Ci fib]
+28.8 +19.4 57 +35 +39 очень
душно
1013.2 1008.3
15 18.06 СВ 12 15 км 9/9 1080 м
[Sc]
+28.0 +18.2 55 +33 +33 очень
душно
1009.9 1005.0
18 18.06 З 6 15 км 5/0
[Ac trans]
+26.6 +18.2 60 +31 +31 душно 1010.0 1005.1 +31.4
21 18.06 З 6 10 км 5/0
[Ac trans]
+23.6 +17.3 68 +27 +27 жарко 1011.8 1006.8
00 19.06 З 6 10 км 5/0
[Ac trans]
+22.8 +19.2 80 +29 +29 очень
душно
1012.4 1007.4
03 19.06 В 6 10 км 3/0
[Ac trans]
+21.4 +18.8 85 +26 +26 душно 1012.9 1007.9
06 19.06 В 6 20 км 5/0
[Ac trans]
+21.4 +18.8 85 +26 +27 душно 1013.2 1008.2 +19.4
09 19.06 СВ 6 20 км ясно +27.8 +18.8 58 +33 +40 очень
душно
1014.3 1009.4
12 19.06 В 6 20 км 3/0
[Ac trans]
+31.0 +16.9 43 +35 +40 очень
душно
1014.1 1009.2
15 19.06 СВ 6 20 км 4/1 1500 м
[Cu med, cong Ac trans]
+31.2 +17.5 44 +35 +37 очень
душно
1013.1 1008.2
18 19.06 ЮВ 4 20 км 8/0
[Ac trans]
+29.0 +15.1 43 +32 +32 душно 1014.2 1009.3 +32.0
21 19.06 В 4 10 км 9/0
[Ac trans]
+27.0 +17.4 56 +31 +31 душно 1015.0 1010.0
00 20.06 ЮВ 4 10 км 8/0
[Ac trans]
+24.4 +18.6 70 +29 +29 душно 1015.8 1010.8
03 20.06 ЮВ 4 10 км 3/0
[Ac trans]
+23.0 +20.6 86 +30 +30 очень
душно
1016.4 1011.4
06 20.06 ЮВ 4 20 км 5/0
[Ac trans]
+21.6 +19.7 89 +27 +29 душно 1017.4 1012.4 +20.8
09 20.06 ЮВ 6 20 км 1/0
[Ac trans]
+29.0 +18.4 53 +34 +40 очень
душно
1019.1 1014.2
12 20.06 СВ 6 20 км 4/4 1080 м
[Sc]
+32.0 +14.6 35 +34 +38 душно 1018.5 1013.6
15 20.06 С 6 20 км 3/0
[Ac trans]
+32.2 +16.1 38 +35 +37 очень
душно
1016.3 1011.5
18 20.06 ЮЗ 4 20 км 8/0
[As trans]
+29.6 +13.4 37 +31 +31 жарко 1016.0 1011.1 +33.4
21 20.06 ЮВ 4 10 км 3/0
[Ac trans]
+24.0 +16.8 64 +28 +28 душно 1017.1 1012.0
00 21.06 В 2 10 км 3/0
[Ac trans]
+22.8 +17.9 74 +28 +28 душно 1018.2 1013.2
03 21.06 ЮВ 6 10 км 3/0
[Ac trans]
+21.0 +18.8 87 +25 +25 комфорт 1017.7 1012.6
06 21.06 В 2 20 км 3/0
[Ac trans]
+23.0 +20.7 87 +30 +35 очень
душно
1017.6 1012.6 +20.6
09 21.06 З 2 20 км 1/0
[Ac trans]
+28.5 +22.5 70 +37 +54 опасность
солнечного
удара
1016.8 1011.8
12 21.06 З 4 20 км 4/3 900 м
[Cb calv Ac trans]
+31.0 +20.6 54 +38 +46 очень
душно
1015.5 1010.7
15 21.06 В 16 15 км 6/6 600 м
[Cb cap]
+28.0 +24.3 80 +39 +39 очень
душно
1014.4 1009.5
18 21.06 З 8 20 км 4/0
[Ac trans Ci fib]
+26.0 +21.2 75 +33 +33 очень
душно
1014.4 1009.5 +31.0
21 21.06 В 4 10 км ясно +21.4 +20.7 96 +27 +27 душно 1014.5 1009.4
00 22.06 В 2 10 км ясно +20.6 +20.2 98 +26 +26 душно 1014.5 1009.4
03 22.06 штиль 0 10 км ясно +18.6 +17.7 95 +20 +20 1014.3 1009.2
06 22.06 В 4 20 км 4/3 900 м
[Cu hum Ac trans]
+21.0 +18.9 88 +26 +28 душно 1014.3 1009.2 +18.0
09 22.06 З 4 15 км 8/8 600 м
[Cu Sc]
+25.4 +22.1 82 +33 +35 очень
душно
1014.2 1009.2
12 22.06 ЮЗ 4 20 км 8/4 1080 м
[Cu hum Ac trans]
+28.8 +16.0 46 +32 +36 душно 1013.3 1008.4
15 22.06 ЮЗ 6 20 км 5/5 1200 м
[Cu med, cong]
+28.4 +18.4 55 +33 +35 очень
душно
1011.2 1006.2
18 22.06 Ю 6 20 км 3/0
[Ac trans]
+27.0 +22.6 77 +36 +36 очень
душно
1011.2 1006.2 +29.8
21 22.06 В 6 10 км 3/0
[Ac trans]
+24.8 +23.0 90 +33 +33 очень
душно
1012.4 1007.4
00 23.06 В 6 10 км ясно +23.0 +21.6 92 +31 +31 очень
душно
1013.0 1008.0
03 23.06 З 16 8000 м дождь {ливн. осадки} 10/10 900 м
[Sc]
+18.0 +16.0 88 +16 +16 1013.3 1008.2
06 23.06 В 6 15 км {ливн. осадки, дождь} 10/10 1200 м
[Sc]
+17.6 +14.1 80 +17 +17 1014.3 1009.2 +16.0 22
09 23.06 В 6 20 км {дождь} 4/0
[Ac trans]
+22.0 +11.7 52 +24 +29 комфорт 1016.2 1011.2
12 23.06 З 6 20 км 3/3 1380 м
[Cu med, cong]
+29.0 +15.5 44 +32 +37 душно 1016.1 1011.2
15 23.06 СЗ 6 20 км ясно +27.6 +12.8 40 +29 +32 жарко 1014.7 1009.8
18 23.06 В 8 20 км ясно +24.0 +9.2 39 +25 +25 комфорт 1014.6 1009.6 +29.0
21 23.06 В 6 10 км 3/0
[Ac trans]
+21.2 +6.4 38 +22 +22 комфорт 1014.8 1009.8
00 24.06 В 4 10 км 1/0
[Ac trans]
+20.0 +5.2 38 +21 +21 комфорт 1015.8 1010.7
03 24.06 В 4 10 км 1/0
[Ac trans]
+18.6 +4.7 40 +19 +19 1015.8 1010.7
06 24.06 В 8 20 км ясно +20.2 +6.2 40 +20 +21 1015.8 1010.7 +17.8
09 24.06 В 3 20 км ясно +23.2 +7.8 37 +24 +39 комфорт 1015.9 1010.9
12 24.06 штиль 0 20 км 3/3 1500 м
[Cu med, cong]
+25.2 +8.7 35 +26 +43 жарко 1015.5 1010.5
15 24.06 штиль 0 20 км ясно +26.5 +7.5 30 +26 +36 жарко 1014.0 1009.1
18 24.06 В 8 20 км ясно +24.4 +6.6 32 +24 +24 комфорт 1013.6 1008.6 +26.6
21 24.06 В 6 10 км 1/0
[Ac trans]
+21.6 +4.2 32 +22 +22 комфорт 1014.8 1009.8
00 25.06 В 4 10 км 3/0
[Ac trans]
+20.0 +1.9 30 +20 +20 1015.4 1010.3

 

Местоположение метеостанции Shkodra (Албания): широта 42.10 долгота 19.53 высота над уровнем моря 43 м.

В архиве по умолчанию представлена погода в Shkodra за последнюю неделю. Архивные данные за месяц целиком и за предыдущие месяцы, начиная с января 2011 года, Вы можете получить, выбрав интересующий диапазон дат из раскрывающегося списка и нажав кнопку "Ввод!".


*Определитесь, кто Вы:
робот инопланетянин человек

Внимание! Время в таблицах - всемирное. Для получения местного времени необходимо прибавить поправку, которая в Shkodra равна 1 ч.

Смотрите также архив погоды в соседних городах и на ближайших метеорологических станциях:

Погода в Bar (Черногория) (35 км)
Погода в Podgorica (Черногория) (38 км)
Погода в Podgorica-Grad (Черногория) (42 км)
Погода в Tivat (Черногория) (74 км)
Погода в Peshkopia (Албания) (88 км)
Погода в Tirana (Албания) (88 км)
Погода в Niksic (Черногория) (88 км)
Погода в Durres (Албания) (89 км)
Погода в Tirana Lapraka (Албания) (94 км)
Погода в Elbasan (Албания) (114 км)

Пояснения к столбцам:

Ветер - указаны скорость ветра в м/с - средняя за 10 мин, порывы в срок и между сроками (в фигурных скобках) и направление, откуда дует ветер: С - северный, СВ - северо-восточный, В - восточный, ЮВ - юго-восточный, Ю - южный, ЮЗ - юго-западный, З - западный, СЗ - северо-западный.
Видимость - горизонтальная дальность видимости в метрах или километрах. При видимости от 1 до 10 км при отсутствии осадков обычно наблюдается дымка, при ухудшении видимости до 1 км и менее - туман. В сухую погоду видимость может ухудшаться дымом, пылью или мглою.
Явления - указаны атмосферные явления, наблюдавшиеся в срок или в последний час перед сроком; фигурными скобками обозначены явления, наблюдавшиеся между сроками (за 1-3 часа до срока); квадратными скобками обозначены град или гололедные отложения с указанием их диаметра в мм.
Облачность - указаны через наклонную черту общая и нижняя облачность в баллах и высота нижней границы облаков в метрах; квадратными скобками обозначены формы облаков: Ci - перистые, Cs - перисто-слоистые, Cc - перисто-кучевые, Ac - высококучевые, As - высокослоистые, Sc - слоисто-кучевые, Ns - слоисто-дождевые, Cu - кучевые, Cb - кучево-дождевые. Подробнее классификацию облаков см. в Атласе облаков (PDF).
T - Температура воздуха - температура, измеренная на высоте 2 м над землей.
Td - Температура точки росы - температура, при понижении до которой содержащийся в воздухе водяной пар достигнет насыщения.
f - Относительная влажность воздуха - влажноcть воздуха, измеренная на высоте 2 м над землей.
Te - Эффективная температура - температура, которую ощущает одетый по сезону человек в тени. Характеристика душности погоды. При расчете учитывается влияние влажности воздуха и скорости ветра на теплоощущения человека.
Tes - Эффективная температура на солнце - температура, которую ощущает человек, с поправкой на солнечный нагрев. Характеристика знойности погоды. Зависит от высоты солнца над горизонтом, облачности и скорости ветра. Ночью, в пасмурную погоду, а также при ветре 12 м/с и более поправка равна нулю.
P - Атмосферное давление - приведенное к уровню моря атмосферное давление.
Po - Атмосферное давление - измеренное на уровне метеостанции атмосферное давление.
Tmin - Минимальная температура - минимум температуры воздуха на высоте 2 м над землей.
Tmax - Максимальная температура - максимум температуры воздуха на высоте 2 м над землей.
R - Количество осадков - Количество выпавших осадков за период времени, мм. При наведении курсора мыши на число - период времени, за который выпало указанное количество осадков.
R24 - Количество осадков - Количество выпавших осадков за 24 часа, мм.
S - Снежный покров - Высота снежного покрова, см. При наведении курсора мыши на число - состояние снежного покрова и степень покрытия местности в баллах.